![]() |
EMODnet Physics ERDDAP
Easier access to scientific data |
log in|
Brought to you by EMODnet Physics |
| Dataset Title: | NDBC - Collection of dew point temperature (DEWT) TimeSeries - IN SITU MultiPointTimeSeriesObservation
|
| Institution: | NDBC (Dataset ID: TS_DEWT_NDBC) |
| Information: | Summary
| License
| FGDC
| ISO 19115
| Metadata
| Background
| Subset
| Data Access Form
| Make a graph
|
| Name | Last modified | Size | Description | |
|---|---|---|---|---|
| Parent Directory | - | - | ||
| 45022_TS_DEWT_042023.nc | 01-Jan-2025 14:54 | 1475685 | ||
| 45022_TS_DEWT_052013.nc | 01-Jan-2025 14:38 | 1627845 | ||
| 45022_TS_DEWT_052014.nc | 01-Jan-2025 14:39 | 1627816 | ||
| 45022_TS_DEWT_052016.nc | 01-Jan-2025 14:42 | 1478391 | ||
| 45022_TS_DEWT_052017.nc | 01-Jan-2025 14:44 | 1468637 | ||
| 45022_TS_DEWT_052018.nc | 01-Jan-2025 14:46 | 1627841 | ||
| 45022_TS_DEWT_052019.nc | 01-Jan-2025 14:48 | 1627365 | ||
| 45022_TS_DEWT_052021.nc | 01-Jan-2025 14:50 | 1627562 | ||
| 45022_TS_DEWT_052022.nc | 01-Jan-2025 14:52 | 1626755 | ||
| 45022_TS_DEWT_052023.nc | 01-Jan-2025 14:54 | 1627668 | ||
| 45022_TS_DEWT_062013.nc | 01-Jan-2025 14:38 | 1627637 | ||
| 45022_TS_DEWT_062014.nc | 01-Jan-2025 14:39 | 1477732 | ||
| 45022_TS_DEWT_062015.nc | 01-Jan-2025 14:40 | 1627041 | ||
| 45022_TS_DEWT_062016.nc | 01-Jan-2025 14:42 | 1626163 | ||
| 45022_TS_DEWT_062017.nc | 01-Jan-2025 14:44 | 1627823 | ||
| 45022_TS_DEWT_062018.nc | 01-Jan-2025 14:46 | 1627844 | ||
| 45022_TS_DEWT_062019.nc | 01-Jan-2025 14:48 | 1627543 | ||
| 45022_TS_DEWT_062022.nc | 01-Jan-2025 14:52 | 1471649 | ||
| 45022_TS_DEWT_062023.nc | 01-Jan-2025 14:54 | 1477946 | ||
| 45022_TS_DEWT_062025.nc | 19-Jun-2025 04:14 | 1477642 | ||
| 45022_TS_DEWT_072013.nc | 01-Jan-2025 14:39 | 1478001 | ||
| 45022_TS_DEWT_072014.nc | 01-Jan-2025 14:40 | 1476847 | ||
| 45022_TS_DEWT_072015.nc | 01-Jan-2025 14:41 | 1477966 | ||
| 45022_TS_DEWT_072016.nc | 01-Jan-2025 14:42 | 1476545 | ||
| 45022_TS_DEWT_072017.nc | 01-Jan-2025 14:44 | 1477982 | ||
| 45022_TS_DEWT_072018.nc | 01-Jan-2025 14:46 | 1477285 | ||
| 45022_TS_DEWT_072019.nc | 01-Jan-2025 14:49 | 1477111 | ||
| 45022_TS_DEWT_072022.nc | 01-Jan-2025 14:52 | 1477624 | ||
| 45022_TS_DEWT_072023.nc | 01-Jan-2025 14:55 | 1477946 | ||
| 45022_TS_DEWT_082013.nc | 01-Jan-2025 14:39 | 1477931 | ||
| 45022_TS_DEWT_082014.nc | 01-Jan-2025 14:40 | 1477829 | ||
| 45022_TS_DEWT_082015.nc | 01-Jan-2025 14:41 | 1627754 | ||
| 45022_TS_DEWT_082016.nc | 01-Jan-2025 14:42 | 1476526 | ||
| 45022_TS_DEWT_082017.nc | 01-Jan-2025 14:45 | 1627759 | ||
| 45022_TS_DEWT_082018.nc | 01-Jan-2025 14:47 | 1627849 | ||
| 45022_TS_DEWT_082019.nc | 01-Jan-2025 14:49 | 1626709 | ||
| 45022_TS_DEWT_082022.nc | 01-Jan-2025 14:53 | 1627645 | ||
| 45022_TS_DEWT_082023.nc | 01-Jan-2025 14:55 | 1627457 | ||
| 45022_TS_DEWT_092013.nc | 01-Jan-2025 14:39 | 1627812 | ||
| 45022_TS_DEWT_092014.nc | 01-Jan-2025 14:40 | 1627527 | ||
| 45022_TS_DEWT_092015.nc | 01-Jan-2025 14:41 | 1627349 | ||
| 45022_TS_DEWT_092016.nc | 01-Jan-2025 14:43 | 1626345 | ||
| 45022_TS_DEWT_092017.nc | 01-Jan-2025 14:45 | 1627535 | ||
| 45022_TS_DEWT_092018.nc | 01-Jan-2025 14:47 | 1627466 | ||
| 45022_TS_DEWT_092019.nc | 01-Jan-2025 14:49 | 1627839 | ||
| 45022_TS_DEWT_092022.nc | 01-Jan-2025 14:53 | 1476937 | ||
| 45022_TS_DEWT_092023.nc | 01-Jan-2025 14:56 | 1477786 | ||
| 45022_TS_DEWT_092024.nc | 10-Jan-2025 21:59 | 1477692 | ||
| 45022_TS_DEWT_102013.nc | 01-Jan-2025 14:39 | 1477258 | ||
| 45022_TS_DEWT_102014.nc | 01-Jan-2025 14:40 | 1477094 | ||
| 45022_TS_DEWT_102015.nc | 01-Jan-2025 14:41 | 1477602 | ||
| 45022_TS_DEWT_102016.nc | 01-Jan-2025 14:43 | 1477586 | ||
| 45022_TS_DEWT_102017.nc | 01-Jan-2025 14:45 | 1477838 | ||
| 45022_TS_DEWT_102018.nc | 01-Jan-2025 14:47 | 1477290 | ||
| 45022_TS_DEWT_102019.nc | 01-Jan-2025 14:50 | 1476844 | ||
| 45022_TS_DEWT_102022.nc | 01-Jan-2025 14:53 | 1472814 | ||
| 45022_TS_DEWT_102023.nc | 01-Jan-2025 14:56 | 1477956 | ||
| 45022_TS_DEWT_102024.nc | 12-Jan-2025 20:42 | 1477971 | ||
| 45022_TS_DEWT_112016.nc | 01-Jan-2025 14:43 | 1477815 | ||
| 45022_TS_DEWT_112022.nc | 01-Jan-2025 14:54 | 1627655 | ||
| 45022_TS_DEWT_112024.nc | 20-Jan-2025 06:17 | 1627796 | ||